#timestamp,LO_Frequency,Hit,StdDev 
1634486415.9,286047000.0,N
1634486435.7,286047001.0,N
1634486455.5,286046998.3,N
1634486475.4,286047002.6,N
1634486495.2,286047002.2,N
1634486515.0,286046998.9,N
1634486515.9,286046998.9,N
1634486535.8,286046999.4,N
1634486555.6,286046997.3,N
1634486575.4,286046996.9,N
1634486595.3,286046998.1,N
1634486615.1,286047001.0,N
1634486635.8,286047002.4,N
1634486655.7,286047002.2,N
1634486675.5,286047005.5,N
1634486695.3,286047003.8,N
1634486715.2,286047001.7,N
1634486735.9,286047001.3,N
1634486755.7,286047002.6,N
1634486775.6,286047000.1,N
1634486795.4,286047002.5,N
1634486815.2,286046998.5,N
1634486835.1,286046998.7,N
1634486836.0,286047011.9,Y
1634486855.8,286047000.6,P
1634486875.6,286046998.2,P
1634486895.5,286047000.6,N
1634486915.3,286046999.2,N
1634486935.1,286046998.5,N
1634486955.9,286046999.6,N
1634486975.7,286046999.5,N
1634486995.5,286046998.1,N
1634487015.4,286046998.9,N
1634487035.2,286046999.2,N
1634487055.0,286046998.6,N
1634487055.9,286046998.6,N
1634487075.8,286046999.3,N
1634487095.6,286046999.6,N
1634487115.4,286046998.7,N
1634487135.3,286047001.1,N
1634487155.1,286047000.8,N
1634487156.0,286047000.8,N
1634487175.8,286047001.1,N
1634487195.7,286047002.2,N
1634487215.5,286047002.2,N
1634487235.3,286047000.7,N
1634487255.2,286046999.7,N
1634487275.9,286047002.8,N
1634487295.7,286047000.2,N
1634487315.6,286047002.3,N
1634487335.4,286047000.5,N
1634487355.2,286047001.0,N
1634487375.1,286047000.2,N
1634487376.0,286047000.2,N
1634487395.8,286047000.4,N
1634487415.6,286046998.5,N
1634487435.5,286046998.2,N
1634487455.3,286046998.1,N
1634487475.1,286046997.8,N
1634487495.9,286046996.5,N
1634487515.7,286046998.3,N
1634487535.5,286047000.0,N
1634487555.4,286047000.6,N
1634487575.2,286047000.5,N
1634487595.0,286047000.9,N
1634487595.9,286047000.9,N
1634487615.8,286046999.9,N
1634487635.6,286046999.9,N
1634487655.4,286047000.3,N
1634487675.3,286047000.7,N
1634487695.1,286047000.6,N
1634487696.0,286047000.6,N
1634487715.8,286046999.0,N
1634487735.7,286046996.5,N
1634487755.5,286046998.8,N
1634487775.3,286046996.5,N
1634487795.1,286046999.6,N
1634487815.9,286046998.6,N
1634487835.7,286047000.3,N
1634487855.5,286046998.7,N
1634487875.4,286047000.8,N
1634487895.2,286046998.5,N
1634487915.0,286047000.7,N
1634487915.9,286047000.7,N
1634487935.8,286047001.0,N
1634487955.6,286047000.2,N
1634487975.4,286046999.8,N
1634487995.3,286047001.1,N
1634488015.1,286046996.9,N
1634488035.8,286046999.3,N
1634488055.7,286046996.6,N
1634488075.5,286046998.5,N
1634488095.3,286047000.8,N
1634488115.2,286046998.2,N
1634488135.0,286046998.7,N
1634488135.9,286046998.7,N
1634488155.7,286046999.7,N
1634488175.6,286046999.7,N
1634488195.4,286047002.7,N
1634488215.2,286046999.7,N
1634488235.1,286047000.5,N
1634488236.0,286047000.5,N
1634488255.8,286046998.4,N
1634488275.6,286046999.2,N
1634488295.5,286046997.0,N
1634488315.3,286046997.6,N
1634488335.1,286046996.8,N
1634488355.9,286046998.3,N
1634488375.7,286046999.4,N
1634488395.5,286046998.3,N
1634488415.4,286046998.5,N
1634488435.2,286046998.2,N
1634488455.0,286046999.6,N
1634488455.9,286046999.6,N
1634488475.8,286046997.1,N
1634488495.6,286046995.5,Y
1634488515.4,286046996.9,P
1634488535.3,286046999.2,N
1634488555.1,286046998.7,N
1634488575.8,286046998.8,N
1634488595.7,286046999.0,N
1634488615.5,286046999.4,N
1634488635.3,286046998.3,N
1634488655.2,286046998.2,N
1634488675.0,286047000.2,N
1634488675.9,286047000.2,N
1634488695.7,286047000.2,N
1634488715.6,286047000.8,N
1634488735.4,286047000.5,N
1634488755.2,286046999.0,N
1634488775.1,286046998.2,N
1634488776.0,286046998.2,N
1634488795.8,286046998.6,N
1634488815.6,286047001.0,N
1634488835.5,286047000.5,N
1634488855.3,286047000.6,N
1634488875.1,286046999.9,N
1634488895.9,286047000.5,N
1634488915.7,286047000.9,N
1634488935.5,286047000.8,N
1634488955.4,286046999.7,N
1634488975.2,286046998.5,N
1634488995.0,286047000.7,N
1634488995.9,286047000.7,N
1634489015.8,286047002.6,N
1634489035.6,286047002.0,N
1634489055.4,286047004.0,Y
1634489075.3,286047004.3,P
1634489095.1,286047003.7,N
1634489096.0,286047003.7,N
1634489115.8,286047001.8,N
1634489135.7,286047001.9,N
1634489155.5,286047000.0,N
1634489175.3,286047000.7,N
1634489195.2,286047000.3,N
1634489215.9,286046998.5,N
1634489235.7,286046998.2,N
1634489255.6,286047000.5,N
1634489275.4,286047000.8,N
1634489295.2,286047002.7,N
1634489315.1,286046998.5,N
1634489316.0,286046998.5,N
1634489335.8,286047000.8,N
1634489355.6,286047000.2,N
1634489375.5,286046999.6,N
1634489395.3,286046997.3,N
1634489415.1,286046994.9,N
1634489435.9,286046996.0,N
1634489455.7,286046995.2,N
1634489475.5,286046996.3,N
1634489495.4,286046993.5,N
1634489515.2,286046994.4,N
1634489535.0,286046994.2,N
1634489535.9,286046994.2,N
1634489555.8,286046993.3,N
1634489575.6,286046995.9,N
1634489595.4,286046993.7,N
1634489615.3,286046996.2,N
1634489635.1,286046993.5,N
1634489636.0,286046993.5,N
1634489655.8,286046991.8,N
1634489675.7,286046992.4,N
1634489695.5,286046994.8,N
1634489715.3,286046994.5,N
1634489735.2,286046992.1,N
1634489755.9,286046992.3,N
1634489775.7,286046991.8,N
1634489795.6,286046990.2,Y
1634489815.4,286046995.4,P
1634489835.2,286046996.3,P
1634489855.1,286046994.6,P
1634489856.0,286046994.6,Y
1634489875.8,286046998.8,P
1634489895.6,286046998.6,N
1634489915.5,286046999.1,N
1634489935.3,286046998.8,N
1634489955.1,286046998.7,N
1634489975.9,286046996.9,N
1634489995.7,286046999.3,N
